Regional Weather Roundup
Issued by NWS Northern Indiana

Home | Current Version | Previous Version | Graphics & Text | Print | Product List | Glossary On
Versions: 1 2 3 4 5 6 7 8 9 10 11 12 13 14 15 16 17 18 19 20 21 22 23 24 25 26 27 28 29 30 31 32 33 34 35 36 37 38 39 40 41 42 43 44 45 46 47 48 49 50
000
ASUS43 KIWX 230410
RWRIWX

KIWX WEATHER ROUNDUP
NATIONAL WEATHER SERVICE NORTHERN INDIANA
1100 PM EST THU FEB 22 2018

NOTE: "FAIR" INDICATES FEW OR NO CLOUDS BELOW 12,000 FEET WITH NO
SIGNIFICANT WEATHER AND/OR OBSTRUCTIONS TO VISIBILITY.

* THESE STATIONS ARE NOT UNDER NWS QUALITY CONTROL. THEY ALSO MAY NOT
  REPORT WEATHER SUCH AS PRECIPITATION OR FOG.

INZ001>027-230500-
NORTHERN INDIANA

CITY           SKY/WX    TMP DP  RH WIND       PRES   REMARKS
GARY*          CLOUDY    41  37  87 E8        30.34R
VALPARAISO     CLOUDY    40  36  86 E12       30.32F
MICHIGAN CITY* CLOUDY    37  34  87 SE9G16    30.33S
LAPORTE*       CLOUDY    37  35  91 E20       30.32F
SOUTH BEND     CLOUDY    37  33  85 SE22G28   30.34F
GOSHEN         CLOUDY    36  33  89 E17       30.37F
MONTICELLO*    CLOUDY    38  37  94 E10       30.31F
LOGANSPORT*    CLOUDY    36  34  93 E17       30.34F
ROCHESTER*     CLOUDY    37  36  93 E14G21    30.35F
WARSAW*        CLOUDY    34  34 100 MISG      30.36F FOG
AUBURN*        CLOUDY    34  32  93 E12       30.41F WCI  25
FORT WAYNE     DRIZZLE   35  34  96 E14       30.40F FOG     WCI  26
HUNTINGTON*    CLOUDY    34  33  95 E10       30.38F FOG     WCI  26
PERU/GRISSOM   CLOUDY    36  36 100 E13G22    30.33F FOG
MARION*        CLOUDY    36  35  96 E13       30.36F FOG

$$
INZ028>050-230500-
CENTRAL INDIANA

CITY           SKY/WX    TMP DP  RH WIND       PRES   REMARKS
LAFAYETTE      CLOUDY    41  41 100 E13       30.32F FOG
KOKOMO*        CLOUDY    37  36  93 E15       30.35F FOG
MUNCIE*        CLOUDY    41  39  93 E10       30.35F FOG
INDIANAPOLIS   DRIZZLE   43  43 100 SE10      30.35S FOG

$$
MIZ043>046-050>051-056>058-064>065-071>073-077>080-230500-
SOUTHWEST LOWER MICHIGAN

CITY           SKY/WX    TMP DP  RH WIND       PRES   REMARKS
BATTLE CREEK   CLOUDY    37  28  70 E14       30.41F
BENTON HARBOR  CLOUDY    40  32  73 E17       30.35F
COLDWATER*     CLOUDY    36  32  87 E13       30.42F
HILLSDALE*     CLOUDY    32  30  93 E14G20    30.41F WCI  22
HOLLAND        CLOUDY    36  26  67 E14       30.41F
GRAND RAPIDS   CLOUDY    33  26  75 E18G24    30.42F WCI  22
KALAMAZOO      CLOUDY    38  30  73 SE12      30.39F
STURGIS*       CLOUDY    37  33  85 E17G23    30.39F
THREE RIVERS*  CLOUDY    38  33  82 E13       30.40F

$$
OHZ001>008-015>018-024>025-230500-
NORTHWEST OHIO

CITY           SKY/WX    TMP DP  RH WIND       PRES   REMARKS
WAUSEON*       CLOUDY    34  34 100 E12       30.45F WCI  25
DEFIANCE       CLOUDY    35  32  88 E10       30.44F WCI  27
FINDLAY        CLOUDY    36  32  85 E8        30.43R
TOLEDO EXPRESS CLOUDY    35  33  92 E15G24    30.46S WCI  25
TOLEDO METCALF CLOUDY    35  31  85 E14G22    30.47F WCI  26
LIMA           CLOUDY    34  34 100 NE7       30.42S FOG     WCI  28

$$
AND FOR LAKE MICHIGAN COASTAL AND OPEN LAKE BUOY OBSERVATIONS

STATION/POSITION TEMP    WIND        PRES    VSBY  WAVE
                 AIR SEA DIR/SP/G                  HT/PER
                 (F)     (DEG/KT/KT) (MB)    (MI)  (FT/S)
CALUMET HARBOR    36      50/  7/  8 1026.8R
MICHIGAN CITY     38     100/ 19/ 23   N/A
BURNS HARBOR      39     100/  8/ 18 1027.4F
SAINT JOSEPH      39      80/  3/  8 1027.8

$$
&&




USA.gov is the U.S. government's official web portal to all federal, state and local government web resources and services.